Location: Eaton
(41.3139°N, 82.0207°W)
Time: 12:57:48
(UTC+00:00)

ATLAS 5 CENTAUR R/B - Pass Details

Date: 17 June 2021
Orbit: 510 x 1148 km, 63.4° (Epoch: 28 July)

Event Time Altitude Azimuth Distance (km) Brightness Sun altitude
Exits shadow 08:30:26 18° 246° (WSW) 1,327 2.7 -12.9°
Maximum altitude 08:32:59 44° 311° (NW) 780 2.1 -12.5°
Drops below altitude 10° 08:37:09 10° 24° (NNE) 1,966 5.4 -12.0°
Sets 08:39:41 0° 31° (NNE) 2,970 6.9 -11.7°
